Time,TemperatureF,DewpointF,PressureIn,WindDirection,WindDirectionDegrees,WindSpeedMPH,WindSpeedGustMPH,Humidity,HourlyPrecipIn,Conditions,Clouds,dailyrainin,SoftwareType,DateUTC
2013-01-27 00:06:00,46.2,44.0,29.66,NNW,332,0.0,2.0,92,0.00,,,0.00,weatherlink.com 1.10,2013-01-26 22:06:00,
2013-01-27 00:21:00,46.1,44.0,29.66,NNW,332,0.0,3.0,91,0.00,,,0.00,weatherlink.com 1.10,2013-01-26 22:21:00,
2013-01-27 00:36:00,45.9,43.0,29.67,NW,319,0.0,4.0,90,0.00,,,0.00,weatherlink.com 1.10,2013-01-26 22:36:00,
2013-01-27 00:51:00,45.8,43.0,29.67,NNW,329,0.0,3.0,90,0.00,,,0.00,weatherlink.com 1.10,2013-01-26 22:51:00,
2013-01-27 01:06:00,45.7,43.0,29.67,NW,319,2.0,4.0,90,0.00,,,0.00,weatherlink.com 1.10,2013-01-26 23:06:00,
2013-01-27 01:21:00,45.6,43.0,29.67,NW,315,0.0,3.0,91,0.00,,,0.00,weatherlink.com 1.10,2013-01-26 23:21:00,
2013-01-27 01:36:00,45.5,43.0,29.68,NW,315,0.0,0.0,91,0.00,,,0.00,weatherlink.com 1.10,2013-01-26 23:36:00,
2013-01-27 01:51:00,45.6,43.0,29.68,NW,315,0.0,0.0,91,0.00,,,0.00,weatherlink.com 1.10,2013-01-26 23:51:00,
2013-01-27 02:06:00,45.7,43.0,29.69,NW,315,0.0,0.0,90,0.00,,,0.00,weatherlink.com 1.10,2013-01-27 00:06:00,
2013-01-27 02:21:00,45.9,44.0,29.70,NW,315,0.0,3.0,91,0.00,,,0.00,weatherlink.com 1.10,2013-01-27 00:21:00,
2013-01-27 02:36:00,46.0,43.0,29.70,NW,308,0.0,2.0,89,0.00,,,0.00,weatherlink.com 1.10,2013-01-27 00:36:00,
2013-01-27 02:51:00,46.0,43.0,29.70,North,355,0.0,2.0,89,0.00,,,0.00,weatherlink.com 1.10,2013-01-27 00:51:00,
2013-01-27 03:06:00,45.8,43.0,29.70,NNW,328,0.0,3.0,88,0.00,,,0.00,weatherlink.com 1.10,2013-01-27 01:06:00,
2013-01-27 03:21:00,45.5,42.0,29.71,NW,325,1.0,3.0,87,0.00,,,0.00,weatherlink.com 1.10,2013-01-27 01:21:00,
2013-01-27 03:36:00,45.6,42.0,29.71,NW,324,0.0,0.0,88,0.00,,,0.00,weatherlink.com 1.10,2013-01-27 01:36:00,
2013-01-27 03:51:00,45.5,42.0,29.71,NW,324,0.0,0.0,88,0.00,,,0.00,weatherlink.com 1.10,2013-01-27 01:51:00,
2013-01-27 04:06:00,45.5,42.0,29.72,NW,324,0.0,0.0,87,0.00,,,0.00,weatherlink.com 1.10,2013-01-27 02:06:00,
2013-01-27 04:22:00,45.4,42.0,29.72,NW,324,0.0,0.0,87,0.00,,,0.00,weatherlink.com 1.10,2013-01-27 02:22:00,
2013-01-27 04:37:00,45.6,42.0,29.72,NW,324,0.0,2.0,86,0.00,,,0.00,weatherlink.com 1.10,2013-01-27 02:37:00,
2013-01-27 04:52:00,45.6,42.0,29.72,NNW,329,1.0,4.0,86,0.00,,,0.00,weatherlink.com 1.10,2013-01-27 02:52:00,
2013-01-27 05:07:00,45.7,42.0,29.73,NNW,329,0.0,1.0,87,0.00,,,0.00,weatherlink.com 1.10,2013-01-27 03:07:00,
2013-01-27 05:22:00,45.6,42.0,29.73,NNW,329,0.0,0.0,86,0.00,,,0.00,weatherlink.com 1.10,2013-01-27 03:22:00,
2013-01-27 05:37:00,45.5,42.0,29.74,NW,317,1.0,3.0,86,0.00,,,0.00,weatherlink.com 1.10,2013-01-27 03:37:00,
2013-01-27 05:52:00,45.6,42.0,29.74,NW,315,0.0,3.0,86,0.00,,,0.00,weatherlink.com 1.10,2013-01-27 03:52:00,
2013-01-27 06:07:00,45.6,41.0,29.75,NW,321,0.0,4.0,85,0.00,,,0.00,weatherlink.com 1.10,2013-01-27 04:07:00,
2013-01-27 06:22:00,45.5,41.0,29.75,NW,315,2.0,4.0,85,0.00,,,0.00,weatherlink.com 1.10,2013-01-27 04:22:00,
2013-01-27 06:37:00,45.4,42.0,29.75,NW,326,0.0,0.0,86,0.00,,,0.00,weatherlink.com 1.10,2013-01-27 04:37:00,
2013-01-27 06:52:00,45.4,42.0,29.76,NW,325,0.0,2.0,86,0.00,,,0.00,weatherlink.com 1.10,2013-01-27 04:52:00,
2013-01-27 07:07:00,45.4,42.0,29.76,NW,325,0.0,0.0,86,0.00,,,0.00,weatherlink.com 1.10,2013-01-27 05:07:00,
2013-01-27 07:22:00,45.3,41.0,29.77,NW,325,0.0,1.0,85,0.00,,,0.00,weatherlink.com 1.10,2013-01-27 05:22:00,
2013-01-27 07:37:00,45.2,41.0,29.78,ENE,59,0.0,4.0,84,0.00,,,0.00,weatherlink.com 1.10,2013-01-27 05:37:00,
2013-01-27 07:52:00,45.1,40.0,29.79,NE,40,0.0,7.0,83,0.00,,,0.00,weatherlink.com 1.10,2013-01-27 05:52:00,
2013-01-27 08:07:00,45.4,40.0,29.79,NNE,33,1.0,7.0,82,0.00,,,0.00,weatherlink.com 1.10,2013-01-27 06:07:00,
2013-01-27 08:22:00,45.8,41.0,29.79,ENE,57,1.0,6.0,83,0.00,,,0.00,weatherlink.com 1.10,2013-01-27 06:22:00,
2013-01-27 08:37:00,45.8,41.0,29.80,NE,36,3.0,6.0,82,0.00,,,0.00,weatherlink.com 1.10,2013-01-27 06:37:00,
2013-01-27 08:52:00,46.3,41.0,29.80,NNE,17,0.0,7.0,81,0.00,,,0.00,weatherlink.com 1.10,2013-01-27 06:52:00,
2013-01-27 09:07:00,46.5,41.0,29.81,NNW,331,2.0,5.0,81,0.00,,,0.00,weatherlink.com 1.10,2013-01-27 07:07:00,
2013-01-27 09:22:00,46.8,41.0,29.82,North,360,2.0,5.0,80,0.00,,,0.00,weatherlink.com 1.10,2013-01-27 07:22:00,
2013-01-27 09:37:00,47.2,41.0,29.82,NNW,334,2.0,4.0,80,0.00,,,0.00,weatherlink.com 1.10,2013-01-27 07:37:00,
2013-01-27 09:52:00,47.7,42.0,29.83,NNW,327,3.0,3.0,79,0.00,,,0.00,weatherlink.com 1.10,2013-01-27 07:52:00,
2013-01-27 10:07:00,47.7,41.0,29.83,NE,55,4.0,4.0,77,0.00,,,0.00,weatherlink.com 1.10,2013-01-27 08:07:00,
2013-01-27 10:22:00,48.0,41.0,29.83,North,349,0.0,4.0,76,0.00,,,0.00,weatherlink.com 1.10,2013-01-27 08:22:00,
2013-01-27 10:37:00,48.7,41.0,29.83,NNW,329,5.0,5.0,74,0.00,,,0.00,weatherlink.com 1.10,2013-01-27 08:37:00,
2013-01-27 10:52:00,48.9,42.0,29.84,North,355,0.0,5.0,76,0.00,,,0.00,weatherlink.com 1.10,2013-01-27 08:52:00,
2013-01-27 11:07:00,49.5,41.0,29.84,NNW,346,0.0,4.0,73,0.00,,,0.00,weatherlink.com 1.10,2013-01-27 09:07:00,
2013-01-27 11:22:00,49.4,41.0,29.84,NNW,328,3.0,6.0,74,0.00,,,0.00,weatherlink.com 1.10,2013-01-27 09:22:00,
2013-01-27 11:37:00,49.7,41.0,29.84,NNE,18,1.0,4.0,72,0.00,,,0.00,weatherlink.com 1.10,2013-01-27 09:37:00,
2013-01-27 11:52:00,50.0,41.0,29.83,NW,322,4.0,6.0,71,0.00,,,0.00,weatherlink.com 1.10,2013-01-27 09:52:00,
2013-01-27 12:07:00,50.4,41.0,29.83,ENE,59,0.0,6.0,70,0.00,,,0.00,weatherlink.com 1.10,2013-01-27 10:07:00,
2013-01-27 12:22:00,51.0,42.0,29.83,NE,55,0.0,5.0,70,0.00,,,0.00,weatherlink.com 1.10,2013-01-27 10:22:00,
2013-01-27 12:38:00,51.2,41.0,29.83,North,351,0.0,3.0,69,0.00,,,0.00,weatherlink.com 1.10,2013-01-27 10:38:00,
2013-01-27 12:53:00,51.0,42.0,29.83,NE,44,0.0,6.0,70,0.00,,,0.00,weatherlink.com 1.10,2013-01-27 10:53:00,
2013-01-27 13:08:00,51.2,41.0,29.83,North,10,0.0,4.0,67,0.00,,,0.00,weatherlink.com 1.10,2013-01-27 11:08:00,
2013-01-27 13:23:00,50.9,41.0,29.83,NE,41,1.0,5.0,69,0.00,,,0.00,weatherlink.com 1.10,2013-01-27 11:23:00,
2013-01-27 13:38:00,50.6,40.0,29.83,North,360,0.0,5.0,68,0.00,,,0.00,weatherlink.com 1.10,2013-01-27 11:38:00,
2013-01-27 13:53:00,50.3,41.0,29.83,NNE,30,1.0,5.0,71,0.00,,,0.00,weatherlink.com 1.10,2013-01-27 11:53:00,
2013-01-27 14:08:00,49.9,41.0,29.84,ENE,72,3.0,7.0,72,0.00,,,0.00,weatherlink.com 1.10,2013-01-27 12:08:00,
2013-01-27 14:23:00,49.5,40.0,29.84,NE,41,4.0,6.0,71,0.00,,,0.00,weatherlink.com 1.10,2013-01-27 12:23:00,
2013-01-27 14:38:00,49.1,41.0,29.84,NNE,17,5.0,7.0,74,0.00,,,0.00,weatherlink.com 1.10,2013-01-27 12:38:00,
2013-01-27 14:53:00,48.6,41.0,29.84,NNE,19,6.0,10.0,75,0.00,,,0.00,weatherlink.com 1.10,2013-01-27 12:53:00,
2013-01-27 15:08:00,48.8,41.0,29.84,East,82,8.0,9.0,74,0.00,,,0.00,weatherlink.com 1.10,2013-01-27 13:08:00,
2013-01-27 15:23:00,49.0,41.0,29.84,NE,38,6.0,16.0,74,0.00,,,0.00,weatherlink.com 1.10,2013-01-27 13:23:00,
2013-01-27 15:38:00,49.0,41.0,29.85,North,5,3.0,8.0,74,0.00,,,0.00,weatherlink.com 1.10,2013-01-27 13:38:00,
2013-01-27 15:53:00,49.0,41.0,29.85,NNW,348,2.0,8.0,74,0.00,,,0.00,weatherlink.com 1.10,2013-01-27 13:53:00,
2013-01-27 16:08:00,48.8,41.0,29.86,NE,44,3.0,10.0,74,0.00,,,0.00,weatherlink.com 1.10,2013-01-27 14:08:00,
2013-01-27 16:23:00,48.8,42.0,29.86,NNW,328,1.0,4.0,76,0.00,,,0.00,weatherlink.com 1.10,2013-01-27 14:23:00,
2013-01-27 16:38:00,48.8,41.0,29.86,NE,39,7.0,7.0,75,0.00,,,0.00,weatherlink.com 1.10,2013-01-27 14:38:00,
2013-01-27 16:53:00,48.8,41.0,29.86,NNE,16,1.0,6.0,74,0.00,,,0.00,weatherlink.com 1.10,2013-01-27 14:53:00,
2013-01-27 17:08:00,48.6,41.0,29.87,NNE,30,2.0,6.0,75,0.00,,,0.00,weatherlink.com 1.10,2013-01-27 15:08:00,
2013-01-27 17:23:00,48.3,41.0,29.87,NE,36,2.0,7.0,76,0.00,,,0.00,weatherlink.com 1.10,2013-01-27 15:23:00,
2013-01-27 17:38:00,47.9,41.0,29.87,North,355,1.0,8.0,78,0.01,,,0.01,weatherlink.com 1.10,2013-01-27 15:38:00,
2013-01-27 17:53:00,47.9,41.0,29.87,North,5,2.0,6.0,78,0.01,,,0.01,weatherlink.com 1.10,2013-01-27 15:53:00,
2013-01-27 18:08:00,47.8,41.0,29.88,NNE,23,0.0,5.0,77,0.01,,,0.01,weatherlink.com 1.10,2013-01-27 16:08:00,
2013-01-27 18:23:00,47.9,41.0,29.88,NNW,340,1.0,4.0,78,0.01,,,0.01,weatherlink.com 1.10,2013-01-27 16:23:00,
2013-01-27 18:38:00,47.5,41.0,29.89,NNE,32,3.0,10.0,78,0.00,,,0.01,weatherlink.com 1.10,2013-01-27 16:38:00,
2013-01-27 18:53:00,47.3,41.0,29.90,North,355,0.0,7.0,79,0.00,,,0.01,weatherlink.com 1.10,2013-01-27 16:53:00,
2013-01-27 19:08:00,46.9,41.0,29.90,NNE,16,4.0,10.0,80,0.00,,,0.01,weatherlink.com 1.10,2013-01-27 17:08:00,
2013-01-27 19:23:00,46.7,41.0,29.91,NNE,15,2.0,7.0,81,0.00,,,0.01,weatherlink.com 1.10,2013-01-27 17:23:00,
2013-01-27 19:38:00,46.7,41.0,29.91,NE,34,2.0,4.0,81,0.00,,,0.01,weatherlink.com 1.10,2013-01-27 17:38:00,
2013-01-27 19:53:00,46.9,41.0,29.91,NNE,16,2.0,4.0,81,0.00,,,0.01,weatherlink.com 1.10,2013-01-27 17:53:00,
2013-01-27 20:08:00,46.9,41.0,29.91,North,355,0.0,5.0,80,0.00,,,0.01,weatherlink.com 1.10,2013-01-27 18:08:00,
2013-01-27 20:23:00,46.9,41.0,29.91,NNW,334,0.0,5.0,81,0.00,,,0.01,weatherlink.com 1.10,2013-01-27 18:23:00,
2013-01-27 20:38:00,46.8,41.0,29.92,North,355,1.0,5.0,81,0.00,,,0.01,weatherlink.com 1.10,2013-01-27 18:38:00,
2013-01-27 20:53:00,46.8,41.0,29.91,NNE,15,0.0,0.0,81,0.00,,,0.01,weatherlink.com 1.10,2013-01-27 18:53:00,
2013-01-27 21:08:00,46.7,42.0,29.92,NNW,336,0.0,3.0,82,0.00,,,0.01,weatherlink.com 1.10,2013-01-27 19:08:00,
2013-01-27 21:23:00,46.6,41.0,29.92,NNW,344,0.0,2.0,81,0.00,,,0.01,weatherlink.com 1.10,2013-01-27 19:23:00,
2013-01-27 21:38:00,46.7,41.0,29.92,NNW,336,0.0,3.0,81,0.00,,,0.01,weatherlink.com 1.10,2013-01-27 19:38:00,
2013-01-27 21:53:00,46.7,41.0,29.92,NNE,15,0.0,3.0,80,0.00,,,0.01,weatherlink.com 1.10,2013-01-27 19:53:00,
2013-01-27 22:08:00,46.7,41.0,29.92,NNE,15,0.0,0.0,81,0.00,,,0.01,weatherlink.com 1.10,2013-01-27 20:08:00,
2013-01-27 22:23:00,46.6,41.0,29.92,NNE,15,0.0,0.0,81,0.00,,,0.01,weatherlink.com 1.10,2013-01-27 20:23:00,
2013-01-27 22:38:00,46.7,41.0,29.92,NNE,15,0.0,2.0,81,0.00,,,0.01,weatherlink.com 1.10,2013-01-27 20:38:00,
2013-01-27 22:53:00,46.5,41.0,29.93,NNE,15,0.0,2.0,81,0.00,,,0.01,weatherlink.com 1.10,2013-01-27 20:53:00,
2013-01-27 23:08:00,46.6,41.0,29.93,NNE,15,0.0,0.0,80,0.00,,,0.01,weatherlink.com 1.10,2013-01-27 21:08:00,
2013-01-27 23:23:00,46.8,41.0,29.93,NNE,15,1.0,2.0,81,0.00,,,0.01,weatherlink.com 1.10,2013-01-27 21:23:00,
2013-01-27 23:38:00,46.8,41.0,29.93,NNW,342,0.0,3.0,80,0.00,,,0.01,weatherlink.com 1.10,2013-01-27 21:38:00,
2013-01-27 23:53:00,46.8,41.0,29.93,NNW,346,2.0,5.0,79,0.00,,,0.01,weatherlink.com 1.10,2013-01-27 21:53:00,